This demonstration page uses our WeatherBlox Daily Observations layout. Learn more.

Left ArrowRight Arrow

41.12389, -100.76542

Hourly Observations for July 20, 2015

Temp ( °F °C ) Dew Point ( °F °C ) Humidity (%) Winds ( mph kmh ) Pressure ( in mb ) Visibility ( mi km ) Precip ( " mm )
12:53 am 00:53 Clear 73 22.8 67 19.4 81 81 Calm 29.90 1012 10 16 0.00 0.00
1:53 am 01:53 Clear 70 21.1 66 18.9 87 87 NW 3 6 29.90 1013 10 16 0.00 0.00
2:53 am 02:53 Clear 71 21.7 68 20 90 90 W 7 11 29.89 1012 10 16 0.00 0.00
3:53 am 03:53 Clear 69 20.6 66 18.9 90 90 W 6 9 29.88 1012 10 16 0.00 0.00
4:53 am 04:53 Clear 67 19.4 64 17.8 91 91 W 7 11 29.87 1012 10 16 0.00 0.00
5:53 am 05:53 Clear 63 17.2 60 15.6 90 90 WNW 7 11 29.88 1012 10 16 0.00 0.00
6:53 am 06:53 Sunny 62 16.7 57 13.9 84 84 WNW 8 13 29.92 1013 10 16 0.00 0.00
7:53 am 07:53 Sunny 66 18.9 59 15 78 78 NW 6 9 29.94 1014 10 16 0.00 0.00
8:53 am 08:53 Sunny 73 22.8 57 13.9 57 57 NW 9 15 29.95 1014 10 16 0.00 0.00
9:53 am 09:53 Sunny 77 25 56 13.3 48 48 NNE 14 22 29.96 1015 10 16 0.00 0.00
10:53 am 10:53 Sunny 79 26.1 57 13.9 47 47 N 12 19 29.97 1015 10 16 0.00 0.00
11:53 am 11:53 Sunny 81 27.2 59 15 47 47 NNE 8 13 29.98 1015 10 16 0.00 0.00
12:53 pm 12:53 Sunny 82 27.8 61 16.1 49 49 N 6 9 29.98 1015 10 16 0.00 0.00
1:53 pm 13:53 Sunny 83 28.3 61 16.1 48 48 NNE 9 15 29.98 1015 10 16 0.00 0.00
2:53 pm 14:53 Partly Cloudy 84 28.9 60 15.6 44 44 NE 7 11 29.98 1015 10 16 0.00 0.00
3:53 pm 15:53 Sunny 84 28.9 58 14.4 41 41 ENE 7 11 29.98 1015 10 16 0.00 0.00
4:53 pm 16:53 Sunny 85 29.4 57 13.9 39 39 NNE 7 11 29.97 1015 10 16 0.00 0.00
5:53 pm 17:53 Sunny 84 28.9 56 13.3 38 38 NNE 10 17 29.97 1015 10 16 0.00 0.00
6:53 pm 18:53 Sunny 83 28.3 55 12.8 38 38 ENE 7 11 29.96 1015 10 16 0.00 0.00
7:53 pm 19:53 Sunny 78 25.6 55 12.8 45 45 NE 6 9 29.96 1015 10 16 0.00 0.00
8:53 pm 20:53 Sunny 74 23.3 59 15 60 60 ENE 3 6 29.98 1015 10 16 0.00 0.00
9:53 pm 21:53 Clear 68 20 58 14.4 70 70 E 5 7 29.98 1015 10 16 0.00 0.00
10:53 pm 22:53 Clear 64 17.8 58 14.4 81 81 E 5 7 30.01 1016 10 16 0.00 0.00
11:53 pm 23:53 Clear 62 16.7 57 13.9 84 84 E 6 9 30.01 1016 10 16 0.00 0.00

Powered by AerisWeather